Regional Weather Roundup
Issued by NWS Upton, NY

Home | Current Version | Previous Version | Text Only | Print | Product List | Glossary On
Versions: 1 2 3 4 5 6 7 8 9 10 11 12 13 14 15 16 17 18 19 20 21 22 23 24 25 26 27 28 29 30 31 32 33 34 35 36 37 38 39 40 41 42 43 44 45 46 47
000
ASUS41 KOKX 011205
RWROKX

REGIONAL WEATHER ROUNDUP
NATIONAL WEATHER SERVICE NEW YORK NY
800 AM EDT FRI AUG 01 2014

NOTE: "FAIR" INDICATES FEW OR NO CLOUDS BELOW 12,000 FEET WITH NO
SIGNIFICANT WEATHER AND/OR OBSTRUCTIONS TO VISIBILITY.

NYZ071-072-176-178-NJZ106-104-011300-
NEW YORK CITY METRO AREA


CITY           SKY/WX    TMP DP  RH WIND       PRES   REMARKS
CENTRAL PARK   SUNNY     73  65  75 W6        30.21S
LAGUARDIA APRT PTSUNNY   75  65  70 CALM      30.18R
KENNEDY INTL   PTSUNNY   75  66  73 W6        30.20R
NEWARK/LIBERTY PTSUNNY   74  67  78 W7        30.18S
BRNX BOT. GARD   N/A     73  64  73 S5        30.19S
TETERBORO      SUNNY     75  66  73 W5        30.18R
$$

NYZ177-179-078>081-011300-
LONG ISLAND NEW YORK

CITY           SKY/WX    TMP DP  RH WIND       PRES   REMARKS
FARMINGDALE    MOSUNNY   73  67  81 W7        30.20R
ISLIP          PTSUNNY   76  68  76 W6        30.19R
SHIRLEY        PTSUNNY   74  69  85 VRB5      30.21R
WESTHAMPTON    PTSUNNY   73  69  87 SW5       30.22R
MONTAUK POINT    N/A     74  68  81 SW5       30.22R
$$

NYZ052-065-067-011300-
HUDSON VALLEY

CITY           SKY/WX    TMP DP  RH WIND       PRES   REMARKS
WHITE PLAINS   SUNNY     71  67  87 VRB3      30.20R
NEWBURGH       MOSUNNY   66  63  88 CALM      30.22R
MONTGOMERY     MOSUNNY   65  61  87 CALM      30.20R
POUGHKEEPSIE   SUNNY     69  65  86 CALM      30.19R FOG
ALBANY         PTSUNNY   66  62  87 SW3       30.19R
$$

NJZ001-105-106-008-010-013-015-019>022-104-011300-
NEW JERSEY

CITY           SKY/WX    TMP DP  RH WIND       PRES   REMARKS
NEWARK/LIBERTY PTSUNNY   74  67  78 W7        30.18S
TETERBORO      SUNNY     75  66  73 W5        30.18R
CALDWELL       CLOUDY    68  62  81 CALM      30.20R
MORRISTOWN     CLOUDY    68  66  94 CALM      30.20R FOG
SOMERVILLE     CLOUDY    66  63  90 CALM      30.18R
LINDEN         FAIR      73  67  81 W3        30.20S
SUSSEX         CLOUDY    65  61  87 CALM      30.20R
ANDOVER          N/A     67  65  93 CALM      30.21R
TRENTON        PTSUNNY   70  66  87 CALM      30.19R
MILLVILLE      PTSUNNY   73  67  81 CALM      30.19R
ATLANTIC CITY  PTSUNNY   73  67  81 SW6       30.19R
WRIGHTSTOWN    PTSUNNY   72  67  87 SW5       30.17R
TOMS RIVER     PTSUNNY   73  66  78 SW3       30.20R
BELMAR         MOSUNNY   73  64  73 SW6       30.19S
$$

PAZ047>061-062-071-011300-
EASTERN PENNSYLVANIA

CITY           SKY/WX    TMP DP  RH WIND       PRES   REMARKS
PHILADELPHIA   PTSUNNY   73  67  81 SW6       30.18R
ALLENTOWN      CLOUDY    69  64  84 N3        30.20R HAZE
SCRANTON       MOSUNNY   66  59  78 CALM      30.19R
$$

CTZ002-004>006-009-010-012-RIZ004-006-007-MAZ004-011-015-011300-
SOUTHERN NEW ENGLAND
 IN CT

CITY           SKY/WX    TMP DP  RH WIND       PRES   REMARKS
BRADLEY INTL   CLOUDY    72  65  78 SW3       30.20R
HARTFORD       MOSUNNY   71  67  87 VRB3      30.20R
DANBURY        SUNNY     71  65  81 CALM      30.22R HAZE
WTRBRY/OXFORD  PTSUNNY   68  64  88 CALM      30.24R FOG
BRIDGEPORT     MOSUNNY   74  69  85 W6        30.20R
MERIDEN        MOSUNNY   73  67  81 CALM      30.20R
NEW HAVEN      PTSUNNY   75  69  81 CALM      30.20R
CHESTER        PTSUNNY   72  68  88 W5        30.22R
GROTON         MOSUNNY   72  68  87 SW5       30.20R
WILLIMANTIC    PTSUNNY   68  64  87 CALM      30.21S

 IN RI

CITY           SKY/WX    TMP DP  RH WIND       PRES   REMARKS
PROVIDENCE     PTSUNNY   72  66  81 CALM      30.22R
BLOCK ISLAND   MOSUNNY   73  64  73 W6        30.22R
WESTERLY       MOSUNNY   72  66  81 CALM      30.21R

 IN MA

CITY           SKY/WX    TMP DP  RH WIND       PRES   REMARKS
BOSTON         PTSUNNY   70  64  81 VRB6      30.21R
WORCESTER      CLOUDY    68  64  87 SW7       30.23S
WESTFIELD      CLOUDY    67  63  87 CALM      30.21R
PROVINCETOWN   MOSUNNY   72  66  83 SW5       30.23R
NANTUCKET      MOSUNNY   68  65  90 SE8       30.24R
$$

ANZ330-335-338-340-345-350-353-355-011300-
COASTAL MARINE OBSERVATIONS


STATION/POSITION TIME  SKY/WX   TEMP    WIND        PRES    VSBY  WAVE
                                AIR SEA DIR/SP/G                  HT/PER
                 (UTC)          (F)     (DEG/KT/KT) (MB)    (MI)  (FT/S)
NY HARB ENTRANCE NOT AVBL
4S FIRE IS       NOT AVBL
23SW MTP         1200            72 71              1022.5          3/ 8
HUDSON CANYON    1200            73 74  160/  4/  4 1022.8          3/ 7
EXECUTION ROCKS  1200            76 69   CALM  /  2   N/A
WESTERN LI SOUND 1200            71     300/  2/  4   N/A           0
CENTRAL LI SOUND 1100            72 72  240/  4/  4   N/A           1/ 2
EASTERN LI SOUND 1100            70 69  350/  2/  4   N/A
ROBBINS REEF     1200            72     250/  7/  8   N/A
$$


>>>>>>>>>>>>>>>>>>>>>>>>>>>> KEY <<<<<<<<<<<<<<<<<<<<<<<<<<<
>                                                          <
>     SKY/WX - SKY CONDITION/PRESENT WEATHER               <
>     TMP    - TEMPERATURE IN FAHRENHEIT                   <
>     DP     - DEWPOINT IN FAHRENHEIT                      <
>     RH     - RELATIVE HUMIDITY IN PERCENT                <
>     WIND   - DIRECTION AND SPEED IN MPH                  <
>     PRES   - MEAN SEA LEVEL PRESSURE IN INCHES OF HG     <
>     WCI    - WIND CHILL INDEX                            <
>     VSB    - VISIBILITY IN MILES                         <
>     HX     - HEAT INDEX                                  <
>     TC     - TEMPERATURE IN CELSIUS                      <
>     VRB    - VARIABLE WIND DIRECTION                     <
>                                                          <
>>>>>>>>>>>>>>>>>>>>>>>>>>>> KEY <<<<<<<<<<<<<<<<<<<<<<<<<<<





USA.gov is the U.S. government's official web portal to all federal, state and local government web resources and services.